Temperature
19 19 19 18 18 18 18 18 18 18 18 18 18 18 18 18 18 18 18 18 17 17 17 17 17 17 17 17 17 17 17 16 16 16 16 16 16 16 16 16 16 16 16
18 18 19 18 18 18 18 18 18 18 18 18 18 18 18 18 18 18 18 18 18 17 17 17 17 17 17 17 17 17 17 16 16 16 16 16 16 16 16 16 16 16 16
19 18 19 18 18 18 18 18 18 18 18 18 18 18 18 18 18 18 18 18 18 17 17 17 17 17 17 17 17 16 16 16 16 16 16 16 16 16 16 16 16 16 16
18 18 18 18 18 18 18 18 18 18 18 18 18 18 18 18 18 18 18 18 18 18 17 17 17 17 17 17 17 17 16 16 16 16 16 16 16 16 16 16 16 16 16
18 18 18 18 18 18 18 18 18 18 18 18 18 18 18 18 18 18 18 18 18 18 18 18 17 17 17 17 17 17 17 17 16 16 16 16 16 16 16 16 16 16 16
18 18 18 18 18 18 18 18 18 18 18 18 18 18 18 18 18 18 18 18 18 18 18 18 17 17 17 17 17 17 17 17 17 16 16 16 16 16 16 16 16 16 16
18 18 18 18 18 18 18 18 18 18 18 18 18 18 18 18 18 18 18 18 18 18 18 18 17 17 17 17 17 17 17 17 17 17 16 16 16 16 16 16 16 16 16
18 18 18 18 18 18 18 18 18 18 18 18 18 18 18 18 18 18 18 18 18 18 18 18 18 17 17 17 17 17 17 17 17 17 16 16 16 16 16 16 16 16 16
18 18 18 18 18 18 18 18 18 18 18 18 18 18 18 18 18 18 18 18 18 18 18 18 18 17 17 17 17 17 17 17 17 17 17 16 16 16 16 16 16 16 16
18 18 18 18 18 18 18 18 18 18 18 18 18 18 18 18 18 18 18 18 18 18 18 18 18 18 17 17 17 17 17 17 17 17 17 16 16 16 16 16 16 16 16
18 18 18 18 18 18 18 18 18 18 18 18 18 18 18 18 18 17 17 18 18 18 18 18 17 17 17 17 17 17 17 17 17 17 17 16 16 16 16 16 16 16 16
18 18 18 18 18 18 18 18 18 18 18 18 18 18 17 17 17 17 17 17 17 18 18 18 17 17 17 17 17 17 17 17 17 17 17 16 16 16 16 16 16 16 16
18 18 18 18 18 18 18 18 18 17 17 17 17 17 17 17 17 17 17 17 17 17 17 18 17 17 17 17 17 17 17 17 17 17 16 16 16 16 16 16 16 16 16
18 18 18 18 18 18 18 18 18 17 17 17 17 17 17 17 17 17 17 17 17 17 17 17 17 17 17 17 17 17 17 17 16 16 16 16 16 16 16 16 16 16 16
18 18 18 18 18 18 18 18 18 17 17 17 17 17 17 17 17 17 17 17 17 16 16 17 17 17 17 17 16 16 16 16 16 16 16 16 16 16 16 16 16 16 15
18 18 18 18 18 18 18 17 17 17 17 17 17 17 17 17 17 17 17 17 17 16 16 17 17 17 17 16 16 16 16 16 16 16 16 16 16 16 16 16 16 15 15
18 18 18 18 18 18 18 17 17 17 17 17 17 17 17 17 17 17 16 17 16 16 16 16 16 16 16 16 16 16 16 16 16 16 16 16 16 15 16 15 15 15 15
18 18 18 18 18 18 18 17 17 17 17 17 17 17 17 16 16 16 16 16 16 16 16 16 16 16 16 16 16 16 16 16 16 16 16 16 15 15 15 15 15 15 15
18 18 18 18 18 17 17 17 17 17 17 17 17 17 16 16 16 16 16 16 16 16 16 16 16 16 15 15 15 16 16 16 16 15 15 15 15 15 15 15 15 15 15
18 18 18 18 18 17 17 17 17 17 17 17 16 16 16 16 16 16 16 16 15 15 15 15 15 15 15 15 15 15 15 15 15 15 15 15 15 15 15 15 15 15 15
18 18 18 17 17 17 17 17 17 17 17 16 16 16 16 16 16 15 15 15 15 15 15 15 15 15 15 15 15 15 15 15 15 15 15 15 15 15 15 15 15 15 14
18 17 17 17 17 17 17 17 17 17 17 16 16 16 16 16 15 15 15 15 15 15 15 15 15 15 15 14 14 14 14 14 14 14 14 15 15 15 15 15 14 14 14
17 17 17 17 17 17 17 17 17 17 17 16 16 16 16 15 15 15 15 15 15 15 14 14 14 14 14 14 14 14 14 14 14 14 14 14 14 14 14 14 14 14 14
17 17 17 17 17 16 16 16 16 16 16 16 16 16 15 15 15 15 15 15 15 14 14 14 14 14 14 14 14 14 13 14 14 14 14 14 14 14 14 14 14 14 14
17 17 17 16 16 16 16 16 16 16 16 16 16 15 15 15 15 15 15 15 14 14 14 14 14 14 14 14 14 13 13 13 13 14 13 13 13 13 14 14 14 14 14
16 16 16 16 16 16 16 16 15 15 15 15 15 15 15 15 15 14 14 14 14 14 14 14 14 14 14 14 13 13 13 13 13 13 13 13 13 13 13 13 13 13 13
Wind_Speed
0 0 1 1 1 1 1 1 1 1 1 1 0 0 0 1 2 2 3 4 4 5 5 5 5 5 6 7 7 7 7 6 5 5 5 6 6 7 7 7 6 6 6
1 0 0 1 1 0 0 0 0 0 0 1 0 0 1 1 1 2 2 3 3 4 5 5 5 6 6 7 7 7 6 6 5 5 6 6 6 7 7 7 6 6 6
3 2 1 1 0 1 1 1 1 1 1 1 1 1 0 0 1 1 2 2 2 3 4 5 5 6 6 6 6 6 6 6 6 6 6 7 7 8 7 7 7 6 6
3 2 1 1 0 1 1 1 1 1 1 1 1 1 1 0 1 1 1 2 2 3 3 4 5 5 6 6 6 6 6 6 6 6 6 6 7 7 7 7 7 6 6
3 2 1 0 1 1 0 0 1 1 0 1 1 1 1 1 1 1 1 2 2 3 3 3 4 4 6 5 5 5 6 6 6 6 6 6 7 7 7 7 7 6 6
3 2 1 0 1 1 1 1 1 1 0 0 1 2 1 1 1 1 2 2 2 3 3 2 3 3 4 5 5 5 5 5 6 6 6 6 7 7 8 8 7 7 7
2 2 1 1 1 1 1 1 1 1 1 1 1 2 2 1 1 1 1 1 2 3 2 2 3 3 3 4 5 5 5 5 6 6 7 7 7 7 7 8 8 8 8
2 2 2 1 1 1 1 1 1 1 0 1 1 1 2 3 2 1 0 1 2 1 2 3 3 3 3 3 4 6 6 6 7 7 7 7 7 7 8 8 8 8 8
2 2 2 1 1 1 1 1 1 2 1 0 1 1 1 1 2 2 1 1 1 1 2 2 3 3 4 4 4 6 7 6 6 7 7 7 7 8 8 8 8 8 7
1 2 2 2 2 1 1 1 1 2 2 1 0 0 1 1 1 2 2 2 1 1 2 2 2 3 4 5 5 6 7 7 7 7 7 7 8 8 8 9 9 9 8
1 1 2 2 2 2 2 1 1 1 1 2 1 1 1 1 1 1 3 3 2 2 2 2 2 3 4 5 5 6 7 7 7 7 8 8 8 8 8 8 9 9 9
1 1 1 2 2 2 2 2 1 1 1 1 1 1 1 1 1 1 2 3 3 3 2 2 2 2 3 4 5 5 6 6 7 7 7 8 8 8 8 8 8 8 9
2 2 2 2 2 2 2 1 2 1 1 1 1 1 1 1 1 2 2 2 2 2 2 1 1 2 2 3 4 5 6 7 7 7 7 6 6 7 8 8 9 9 9
3 2 2 2 2 2 2 2 2 2 1 1 1 2 1 2 2 2 2 2 2 2 2 2 1 1 3 3 5 5 5 7 7 7 6 6 6 7 7 7 8 8 8
3 3 3 3 2 2 2 2 2 2 2 2 2 2 2 2 2 2 2 2 2 3 3 2 1 1 2 3 4 4 5 6 6 6 6 6 7 7 8 8 8 9 9
3 2 3 3 2 2 2 2 2 2 2 2 2 2 2 2 2 2 2 2 3 3 3 2 2 2 2 2 3 4 5 6 6 6 6 6 7 7 8 8 8 9 9
3 3 3 3 3 3 3 2 2 2 2 2 2 2 3 2 2 2 1 2 2 2 3 3 2 2 2 2 2 2 3 4 4 5 6 6 7 7 7 7 8 8 9
3 4 3 3 3 3 3 3 3 2 3 3 3 2 3 2 2 2 1 2 2 2 3 4 3 2 2 3 2 2 2 3 3 4 6 7 7 7 7 8 8 9 9
3 3 3 3 3 3 3 3 3 3 3 3 3 3 3 3 3 2 2 2 2 2 2 3 3 2 2 2 2 2 2 2 3 4 6 6 7 7 8 8 8 9 9
3 3 4 4 4 4 4 4 4 3 3 3 3 4 4 4 4 4 3 3 2 2 1 2 2 2 2 2 1 2 2 2 2 3 3 4 6 7 7 8 8 9 10
4 3 3 3 3 4 4 4 4 4 4 4 3 4 4 5 5 4 3 3 3 2 2 2 2 2 2 1 2 2 2 2 3 2 2 3 3 3 5 6 8 9 10
3 3 3 3 3 3 3 5 4 4 4 4 4 4 4 4 5 5 5 5 4 4 3 3 3 4 4 3 2 2 1 1 2 1 2 3 2 3 4 5 7 8 9
3 3 3 3 3 3 3 4 5 4 4 4 4 3 3 3 2 3 3 4 5 6 6 5 5 5 4 4 3 3 3 3 3 2 1 3 2 3 4 5 6 8 8
3 3 3 3 3 3 3 3 3 3 3 3 3 4 4 4 3 2 2 3 4 4 6 6 6 6 5 4 4 4 3 3 3 2 3 3 2 3 3 4 5 6 7
3 3 3 4 4 3 2 2 3 2 3 3 3 3 3 4 4 2 3 3 4 5 5 6 6 7 6 6 4 2 2 2 3 3 3 3 2 2 3 3 3 3 4
3 3 2 3 3 3 3 3 4 2 3 3 3 3 4 4 4 3 3 4 5 5 4 3 3 4 5 5 6 6 5 4 3 3 3 3 2 1 2 2 2 2 2
Wind_Direction
183 5 347 356 12 30 51 31 26 9 26 39 7 205 203 228 235 243 247 241 232 216 214 209 204 193 186 188 188 189 190 190 189 187 188 189 189 187 185 182 182 179 180
186 181 306 310 349 34 75 53 334 22 45 88 16 330 265 256 249 260 261 254 241 220 211 207 204 202 192 192 193 191 193 194 190 186 188 190 189 188 191 187 183 183 183
189 188 217 263 291 104 76 69 55 55 53 54 19 336 349 321 286 276 267 261 256 238 217 211 209 209 202 199 199 199 202 201 196 194 193 193 190 191 192 191 190 193 194
192 184 190 240 150 114 104 107 84 56 42 35 354 327 342 334 287 270 256 256 249 244 234 221 215 217 214 210 207 205 205 204 200 197 196 193 191 190 193 195 196 197 198
183 177 176 207 131 106 80 132 93 103 67 356 332 335 326 301 289 283 289 275 251 240 238 235 224 220 218 220 215 206 201 200 197 197 198 198 195 195 197 199 199 199 198
175 166 167 146 122 109 82 71 96 81 100 356 8 357 327 297 279 266 267 272 261 247 239 238 232 217 215 226 225 218 211 205 202 203 208 211 207 205 203 204 206 208 208
172 164 169 153 126 121 125 121 126 88 55 72 52 357 351 354 325 276 260 258 261 251 234 228 225 217 222 222 224 223 222 221 213 214 218 219 214 211 209 209 210 211 211
187 191 180 179 153 131 103 112 122 114 40 62 110 52 352 347 355 359 1 272 270 256 245 234 218 217 227 232 233 232 231 230 225 224 225 224 219 212 210 209 208 211 211
194 185 185 178 160 161 184 193 162 163 179 29 93 143 145 267 315 334 337 321 300 279 269 257 237 227 225 232 243 242 238 238 235 234 231 226 220 214 211 211 211 211 211
198 191 186 184 174 175 195 226 189 179 166 188 54 83 166 165 191 319 327 329 322 300 277 270 254 234 226 232 241 241 238 240 238 234 231 229 225 219 216 216 217 217 215
273 219 196 194 184 190 201 205 177 160 169 183 187 164 128 92 174 209 297 319 330 318 278 259 249 242 234 231 239 242 239 242 240 234 232 232 229 226 226 223 222 223 222
274 264 213 210 197 193 205 205 184 166 177 174 177 173 173 180 197 198 245 286 302 310 305 269 248 247 237 234 241 243 242 244 243 238 235 233 232 229 230 230 228 224 222
240 245 221 214 206 201 204 189 166 177 185 173 189 204 208 220 204 194 217 260 285 301 310 298 247 241 244 237 248 258 251 244 242 238 236 232 232 232 230 230 230 228 226
231 228 205 207 210 200 205 178 179 199 185 199 220 211 218 234 215 206 202 213 281 301 300 288 309 247 247 239 246 248 255 248 244 242 240 232 235 239 239 236 233 228 228
226 215 200 195 200 197 194 171 184 205 195 216 232 229 234 243 228 226 214 205 213 268 286 282 286 277 252 243 252 243 251 255 248 245 239 235 236 237 238 236 234 229 227
214 196 201 198 202 201 190 184 193 198 192 227 229 234 246 250 241 234 224 223 219 223 258 276 267 288 285 265 259 249 256 261 251 247 244 242 242 242 240 238 234 231 229
198 198 203 199 201 200 194 189 207 200 207 237 246 240 257 255 254 255 237 228 229 219 249 283 285 300 294 289 295 269 258 252 253 247 246 246 246 246 245 241 237 234 232
199 200 198 202 213 203 190 188 205 208 214 234 244 243 263 257 255 260 243 243 242 227 229 269 289 297 282 282 285 279 274 260 254 250 246 247 248 249 249 248 243 240 237
197 196 190 200 214 211 202 204 206 213 221 232 238 241 253 249 251 250 243 244 249 245 230 249 280 286 285 306 307 294 281 281 266 254 246 244 248 251 251 253 252 247 243
198 203 202 208 212 211 209 211 211 216 229 237 238 243 248 240 241 242 241 245 247 245 240 248 276 286 284 297 292 288 297 293 287 283 270 258 253 252 254 253 252 251 248
211 208 206 215 218 213 218 212 216 224 229 242 251 252 251 242 235 231 237 235 226 225 234 249 261 268 275 279 266 255 275 298 286 274 277 273 269 268 264 257 253 253 250
211 205 211 217 224 232 230 216 209 224 229 238 255 266 262 252 248 239 234 223 206 208 221 230 242 250 255 247 243 245 255 290 287 270 263 276 257 266 267 256 255 251 249
209 212 220 220 225 235 227 217 210 213 232 243 249 261 270 272 249 253 252 239 233 228 216 214 231 243 245 238 223 232 232 240 253 270 250 281 283 276 276 267 262 256 252
207 215 221 227 228 240 224 215 210 210 231 244 244 244 252 263 267 251 252 259 261 256 238 229 233 241 243 232 215 226 236 249 267 251 218 254 273 272 281 283 280 262 251
217 220 213 219 223 244 236 225 210 221 242 258 257 250 244 252 267 236 228 257 274 276 258 241 243 253 255 241 205 191 211 232 265 257 206 226 261 281 279 275 289 274 251
221 228 231 222 216 232 234 223 212 222 247 265 272 262 247 252 258 224 222 241 264 276 283 287 277 276 268 253 217 210 213 226 247 257 211 207 229 250 279 267 282 295 284
Height
1537 1537 1538 1538 1538 1538 1539 1539 1539 1539 1539 1539 1539 1539 1539 1538 1538 1538 1537 1537 1536 1535 1535 1535 1535 1535 1535 1537 1538 1539 1540 1541 1542 1543 1543 1545 1546 1547 1549 1550 1551 1552 1553
1538 1538 1538 1538 1539 1539 1539 1539 1540 1540 1540 1540 1539 1539 1539 1538 1538 1538 1537 1537 1536 1535 1535 1535 1535 1536 1536 1537 1538 1539 1540 1541 1542 1542 1543 1544 1545 1546 1548 1549 1550 1551 1552
1538 1538 1538 1539 1539 1539 1540 1540 1540 1540 1540 1540 1539 1539 1539 1538 1538 1538 1537 1537 1536 1536 1536 1536 1536 1536 1537 1537 1538 1539 1540 1541 1541 1542 1543 1544 1545 1546 1547 1548 1549 1550 1551
1538 1539 1539 1539 1539 1539 1540 1540 1540 1540 1540 1540 1539 1539 1538 1538 1538 1538 1537 1537 1536 1536 1536 1536 1536 1537 1537 1537 1538 1539 1539 1540 1541 1542 1543 1544 1544 1545 1546 1547 1548 1549 1550
1539 1539 1539 1539 1540 1540 1540 1540 1540 1540 1540 1539 1539 1539 1538 1538 1538 1537 1537 1537 1536 1536 1536 1536 1536 1537 1537 1537 1538 1538 1539 1539 1540 1541 1542 1543 1543 1544 1545 1546 1546 1547 1548
1539 1539 1539 1539 1540 1540 1540 1540 1540 1539 1539 1539 1539 1538 1538 1538 1537 1537 1537 1537 1536 1536 1536 1536 1537 1537 1537 1537 1538 1538 1539 1539 1539 1540 1541 1541 1542 1543 1543 1544 1544 1545 1546
1538 1539 1539 1539 1539 1539 1539 1539 1539 1539 1539 1539 1539 1538 1538 1537 1537 1537 1536 1536 1536 1536 1536 1536 1536 1537 1537 1537 1537 1538 1538 1538 1539 1539 1540 1540 1541 1541 1542 1542 1542 1543 1544
1538 1538 1538 1538 1538 1539 1539 1539 1539 1539 1539 1538 1538 1538 1537 1538 1536 1536 1536 1536 1536 1536 1536 1536 1536 1536 1536 1537 1537 1537 1537 1537 1538 1538 1538 1538 1539 1539 1540 1540 1540 1541 1542
1537 1537 1537 1538 1538 1538 1538 1538 1538 1538 1538 1538 1538 1538 1537 1536 1536 1536 1535 1535 1535 1535 1535 1535 1535 1535 1535 1535 1536 1536 1536 1536 1536 1536 1536 1537 1537 1537 1538 1538 1539 1539 1539
1536 1536 1536 1537 1537 1537 1537 1537 1537 1537 1537 1537 1537 1537 1538 1537 1536 1535 1535 1534 1534 1534 1534 1534 1534 1534 1534 1534 1534 1534 1534 1534 1534 1534 1534 1535 1535 1535 1536 1536 1536 1537 1537
1535 1536 1536 1536 1536 1536 1536 1536 1537 1537 1537 1536 1536 1536 1536 1536 1536 1535 1534 1533 1533 1533 1533 1533 1533 1533 1532 1532 1532 1532 1532 1532 1532 1532 1532 1533 1533 1533 1534 1534 1534 1535 1535
1534 1534 1535 1534 1535 1535 1535 1535 1535 1536 1536 1536 1535 1535 1535 1535 1534 1534 1533 1532 1532 1532 1531 1531 1531 1531 1530 1530 1530 1530 1531 1530 1530 1530 1530 1531 1531 1531 1531 1532 1532 1532 1533
1533 1533 1533 1533 1533 1534 1534 1534 1534 1534 1534 1534 1534 1534 1534 1533 1533 1533 1532 1531 1530 1530 1529 1530 1529 1529 1529 1529 1529 1529 1529 1529 1528 1528 1528 1528 1528 1529 1529 1529 1529 1530 1530
1531 1531 1532 1532 1532 1532 1532 1532 1532 1533 1533 1533 1532 1532 1532 1532 1532 1531 1531 1530 1528 1528 1527 1527 1527 1527 1527 1527 1527 1527 1526 1526 1526 1526 1526 1526 1526 1526 1526 1526 1527 1527 1528
1529 1529 1530 1530 1530 1530 1530 1530 1530 1531 1531 1531 1531 1530 1530 1530 1530 1529 1529 1528 1528 1526 1525 1525 1525 1525 1525 1525 1524 1524 1524 1524 1523 1523 1523 1523 1523 1523 1523 1523 1524 1524 1525
1526 1527 1527 1527 1527 1527 1527 1528 1528 1528 1528 1528 1528 1528 1527 1527 1527 1527 1527 1526 1526 1525 1523 1522 1522 1522 1522 1522 1522 1521 1521 1521 1521 1520 1520 1520 1520 1520 1520 1520 1521 1521 1521
1523 1524 1524 1524 1524 1524 1525 1525 1525 1526 1526 1526 1525 1525 1525 1525 1525 1525 1524 1524 1523 1523 1521 1520 1520 1520 1520 1519 1519 1519 1518 1518 1518 1518 1517 1517 1518 1518 1518 1518 1518 1518 1518
1521 1521 1521 1522 1522 1522 1522 1522 1523 1523 1523 1523 1522 1522 1522 1522 1522 1522 1521 1521 1520 1520 1519 1518 1517 1517 1517 1516 1516 1515 1515 1514 1514 1514 1514 1514 1514 1514 1514 1515 1514 1514 1515
1517 1518 1518 1519 1519 1519 1519 1520 1520 1520 1520 1520 1519 1519 1519 1519 1519 1519 1519 1518 1517 1517 1516 1515 1514 1514 1514 1513 1512 1512 1512 1511 1511 1511 1511 1511 1511 1511 1511 1511 1511 1511 1511
1514 1515 1515 1515 1516 1516 1517 1517 1517 1517 1517 1516 1516 1516 1516 1516 1516 1516 1516 1515 1515 1514 1513 1512 1512 1511 1510 1510 1509 1508 1508 1507 1507 1507 1507 1507 1507 1507 1507 1507 1507 1507 1507
1511 1512 1512 1512 1513 1513 1513 1514 1514 1514 1514 1513 1513 1513 1513 1513 1513 1513 1513 1512 1512 1511 1510 1509 1508 1507 1507 1506 1506 1505 1504 1504 1504 1504 1503 1503 1503 1503 1503 1503 1503 1503 1503
1508 1509 1509 1509 1510 1510 1510 1511 1511 1511 1510 1510 1510 1510 1510 1510 1510 1510 1509 1509 1509 1508 1507 1506 1505 1504 1503 1503 1502 1502 1501 1501 1500 1501 1500 1499 1500 1499 1499 1499 1499 1499 1499
1505 1505 1505 1506 1506 1507 1507 1507 1507 1507 1507 1507 1507 1507 1507 1507 1506 1506 1505 1505 1505 1504 1504 1503 1502 1501 1500 1500 1499 1498 1498 1498 1497 1497 1497 1496 1496 1495 1495 1495 1494 1494 1494
1502 1502 1502 1503 1503 1503 1503 1504 1504 1504 1503 1503 1503 1503 1503 1503 1503 1502 1502 1501 1501 1500 1500 1499 1498 1498 1497 1497 1496 1496 1495 1495 1494 1494 1494 1492 1492 1491 1491 1491 1491 1490 1490
1499 1499 1499 1499 1500 1500 1500 1500 1501 1501 1500 1500 1500 1499 1499 1499 1499 1498 1498 1497 1496 1496 1496 1495 1495 1494 1493 1493 1493 1492 1492 1491 1490 1490 1490 1489 1488 1487 1487 1487 1487 1487 1486
1496 1496 1496 1496 1496 1496 1497 1497 1498 1498 1497 1497 1496 1496 1496 1495 1495 1494 1494 1493 1492 1492 1491 1491 1490 1490 1489 1489 1489 1488 1488 1487 1486 1486 1486 1485 1485 1484 1484 1483 1483 1483 1483